Weather Roundup
Issued by NWS Chicago, IL

Home | Current Version | Previous Version | Graphics & Text | Print | Product List | Glossary On
Versions: 1 2 3 4 5 6 7 8 9 10 11 12 13 14 15 16 17 18 19 20 21 22 23 24 25 26 27 28 29 30 31 32 33 34 35 36 37 38 39 40 41 42 43 44 45 46 47 48 49 50
000
NZUS59 KLOT 110402
HRRLOT

CHICAGO AREA WEATHER ROUNDUP
NATIONAL WEATHER SERVICE CHICAGO/ROMEOVILLE IL
1000 PM CST SAT DEC 10 2016

NOTE: "FAIR" INDICATES FEW OR NO CLOUDS BELOW 12,000 FEET WITH NO
SIGNIFICANT WEATHER AND/OR OBSTRUCTIONS TO VISIBILITY.

* THESE STATIONS ARE NOT UNDER NWS QUALITY CONTROL. THEY ALSO MAY NOT
  REPORT WEATHER SUCH AS PRECIPITATION OR FOG.

ILZ005-006-012>014-019>023-110500-
NORTHEAST ILLINOIS

CITY           SKY/WX    TMP DP  RH WIND       PRES   REMARKS
OHARE          LGT SNOW  22  19  89 SE10      30.29F FOG     WCI  11
MIDWAY         LGT SNOW  23  19  85 SE8       30.31F FOG     WCI  14
AURORA         LGT SNOW  23  20  88 SE12      30.29F FOG     WCI  12
LANSING*       LGT SNOW  23  22  98 SE6       30.33F WCI  16
WAUKEGAN       LGT SNOW  22  19  89 S6        30.29F FOG     WCI  14
DUPAGE AIRPORT LGT SNOW  22  18  85 SE8       30.28F FOG     WCI  12
WHEELING       LGT SNOW  22  19  89 SE7       30.32F FOG     WCI  13
KANKAKEE*      LGT SNOW  24  22  89 SE8       30.33F WCI  16
MORRIS*        MIX PCPN  24  21  88 SE12      30.29F WCI  13
NORTHERLY ISL    N/A     23  21  92 S8          N/A  WCI  14
$$

WIZ051-052-058>065-066-070>072-110500-
SOUTHEAST WISCONSIN

CITY           SKY/WX    TMP DP  RH WIND       PRES   REMARKS
MILWAUKEE      LGT SNOW  22  18  85 S5        30.30F FOG     WCI  16
KENOSHA*       LGT SNOW  22  18  85 SE6       30.30F VSB 1   WCI  14
RACINE*        LGT SNOW  22  18  85 S5        30.31F FOG     WCI  16
BURLINGTON     LGT SNOW  25  24  95 CALM      30.28F
WAUKESHA       LGT SNOW  19  18  93 SE3       30.29F
WEST BEND      LGT SNOW  19  19 100 CALM      30.29S VSB 1
$$

INZ001>003-010>013-019-020-110500-
NORTHWEST INDIANA

CITY           SKY/WX    TMP DP  RH WIND       PRES   REMARKS
GARY*          LGT SNOW  25  23  93 SE5       30.34F WCI  19
MICHIGAN CITY* NOT AVBL
RENSSELAER*    NOT AVBL
VALPARAISO     LGT SNOW  24  21  88 MISG      30.34F FOG
$$

LMZ740>746-110500-
SOUTHERN LAKE MICHIGAN

STATION/POSITION TIME  SKY/WX   TEMP WIND        PRES    VSBY
                                AIR  DIR/SP/G
                 (UTC)          (F)  (DEG/KT/KT) (MB)    (MI)
HARRISON CRIB    NOT AVBL
BURNHAM HARBOR   0400            23  150/  8/  9   N/A
CALUMET HARBOR   0330            23  150/  6/  9 1026.5F
BURNS HARBOR     0340            24  170/  9/ 12 1027.8F
MICHIGAN CITY    NOT AVBL
$$

ABBREVIATIONS USED IN REMARKS
   TC - TEMPERATURE IN CELSIUS
  WCI - WIND CHILL INDEX
   HX - HEAT INDEX
  VSB - VISIBILITY
$$



USA.gov is the U.S. government's official web portal to all federal, state and local government web resources and services.